Location: Newark
(36.6333°N, 138.1833°E)
Time: 23:53:57
(UTC+00:00)

N. Korean satellite - Visible Passes

Search period start: 19 February 2020 00:00
Search period end: 29 February 2020 00:00
Orbit: 456 x 505 km, 97.2° (Epoch: 19 February)

Date Brightness Start Highest point End Pass type
(mag) Time Alt. Az. Time Alt. Az. Time Alt. Az.
19 Feb 7.9 20:11:32 10° NNE 20:15:07 44° E 20:18:39 10° S visible
20 Feb 9.4 19:46:40 10° NE 19:49:29 20° E 19:52:17 10° SE visible
21 Feb 6.9 20:53:48 10° N 20:57:21 45° WNW 21:00:52 10° SSW visible
22 Feb 6.8 20:28:09 10° NNE 20:31:53 78° ESE 20:35:32 10° S visible
23 Feb 8.5 20:02:54 10° NNE 20:06:18 33° E 20:09:38 10° SSE visible
24 Feb 9.8 19:38:18 10° NE 19:40:37 16° E 19:42:55 10° SE visible
25 Feb 6.6 20:44:55 10° N 20:48:35 59° WNW 20:52:10 10° SSW visible
26 Feb 7.3 20:19:24 10° NNE 20:23:03 58° E 20:26:39 10° S visible
27 Feb 9.0 19:54:18 10° NE 19:57:26 26° E 20:00:31 10° SSE visible
28 Feb 10.1 19:30:12 10° ENE 19:31:43 12° E 19:33:14 10° ESE visible
